Location: Izdebno
(52.6670°N, 16.2170°E)
Time: 19:00:08
(UTC+02:00)

Transit 4A - Pass Details

Date: 29 February 2024
Orbit: 871 x 972 km, 66.8° (Epoch: 21 April)

Event Time Altitude Azimuth Distance (km) Brightness Sun altitude
Rises 05:34:48 0° 306° (NW) 3,541 - -11.2°
Exits shadow 05:36:08 - 311° (NW) 3,115 10.2 -11.0°
Reaches altitude 10° 05:37:57 10° 321° (NW) 2,581 9.9 -10.7°
Maximum altitude 05:42:31 22° 12° (NNE) 1,838 9.6 -10.0°
Drops below altitude 10° 05:47:02 10° 62° (ENE) 2,540 11.3 -9.3°
Sets 05:50:05 0° 77° (ENE) 3,469 12.8 -8.8°
